"startDT [UTC]","vpos","CH4 [ppm]","stdev(CH4) [ppm]","CO2 [ppm]","stdev(CO2) [ppm]","H2O_reported [%]","stdev(H2O_reported)","CavityPressure [torr]","CavityTemp [C]","OutletValve","CH4_dry [ppm]","CO2_dry [ppm]","DasTemp [C]","EtalonTemp [C]","WarmBoxTemp [C]","MPVPosition","T_ECpre [C]","T_EC1 [C]","T_EC2 [C]","p_inlet [hPa]","p_in [hPa]","p_out [hPa]","T_inlet [C]","RH_inlet [%]","dwpt_inlet [C]","T_vent [C]","RH_vent [%]","dwpt_vent [C]","flow_vent [l min-1]","flow_inlet [l min-1]","dwpt_sample [C]","T_room [C]"
2015-11-08 00:00:00,0.0,1.93959,0.00043,402.205,0.033,0.1356,0.0019,140.000,45.000,31342.26260,1.94217,402.863,28.999,45.072,45.000,0.00,0.09,-272.73,-272.79,1,509,-944,13.9,6.6,-22.0,14.1,6.6,-21.8,5.73,2.17,-17.6,20.8
2015-11-08 00:01:00,0.0,1.93892,0.00034,402.181,0.027,0.1358,0.0023,139.998,45.000,31340.55451,1.94153,402.840,28.995,45.071,45.000,0.00,0.09,-272.73,-272.79,0,508,-944,13.9,6.6,-22.0,14.1,6.7,-21.8,5.73,2.13,-17.6,20.8
2015-11-08 00:02:00,0.0,1.93921,0.00066,402.203,0.024,0.1359,0.0026,139.997,45.000,31339.03242,1.94183,402.863,28.994,45.071,45.000,0.00,0.09,-272.74,-272.79,1,508,-944,13.9,6.6,-22.0,14.1,6.6,-21.8,5.73,2.01,-17.6,20.8
2015-11-08 00:03:00,0.0,1.93940,0.00050,402.188,0.033,0.1359,0.0020,140.000,45.000,31341.02595,1.94196,402.847,29.001,45.071,45.000,0.00,0.09,-272.73,-272.79,1,508,-944,13.9,6.6,-22.0,14.1,6.7,-21.7,5.73,1.98,-17.6,20.8
2015-11-08 00:04:00,0.0,1.93912,0.00036,402.217,0.032,0.1351,0.0014,139.998,45.000,31341.10066,1.94174,402.873,29.000,45.071,45.000,0.00,0.09,-272.73,-272.79,1,509,-944,13.9,6.6,-22.1,14.1,6.6,-21.8,5.73,2.08,-17.5,20.8
2015-11-08 00:05:00,0.0,1.94005,0.00048,402.227,0.036,0.1349,0.0019,140.000,45.000,31342.73011,1.94259,402.879,29.006,45.071,45.000,0.00,0.09,-272.73,-272.79,0,508,-944,13.9,6.6,-22.1,14.2,6.6,-21.8,5.73,2.17,-17.6,20.8
2015-11-08 00:06:00,0.0,1.93980,0.00057,402.233,0.035,0.1353,0.0018,140.000,45.000,31346.52056,1.94241,402.889,29.000,45.071,45.000,0.00,0.09,-272.74,-272.79,1,508,-944,14.0,6.6,-22.1,14.2,6.6,-21.8,5.73,2.11,-17.6,20.8
2015-11-08 00:07:00,0.0,1.93988,0.00058,402.246,0.029,0.1355,0.0015,139.998,45.000,31345.08463,1.94245,402.903,29.001,45.071,45.000,0.00,0.09,-272.73,-272.78,1,508,-944,14.0,6.6,-22.1,14.2,6.6,-21.8,5.73,2.00,-17.5,20.8
2015-11-08 00:08:00,0.0,1.93901,0.00060,402.232,0.028,0.1355,0.0017,140.000,45.000,31346.29954,1.94165,402.889,29.002,45.071,45.000,0.00,0.09,-272.72,-272.78,0,509,-943,14.0,6.6,-22.1,14.2,6.6,-21.8,5.73,1.98,-17.5,20.8
2015-11-08 00:09:00,0.0,1.93961,0.00082,402.254,0.040,0.1365,0.0020,140.000,45.000,31344.87199,1.94217,402.914,29.004,45.071,45.000,0.00,0.09,-272.74,-272.79,0,508,-944,14.0,6.6,-22.0,14.2,6.6,-21.8,5.73,2.09,-17.5,20.8
2015-11-08 00:10:00,0.0,1.94099,0.00063,402.279,0.028,0.1341,0.0017,139.998,45.000,31343.69928,1.94356,402.929,29.021,45.071,45.000,0.00,0.09,-272.73,-272.78,1,508,-944,13.9,6.5,-22.1,14.2,6.6,-21.8,5.73,2.17,-17.5,20.8
2015-11-08 00:11:00,0.0,1.94059,0.00072,402.231,0.047,0.1346,0.0021,139.997,45.000,31344.76330,1.94314,402.887,29.038,45.071,45.000,0.00,0.09,-272.73,-272.77,1,509,-944,13.9,6.5,-22.1,14.2,6.6,-21.9,5.73,2.11,-17.5,20.8
2015-11-08 00:12:00,0.0,1.94019,0.00053,402.164,0.033,0.1351,0.0017,140.001,45.000,31345.75716,1.94282,402.820,29.055,45.071,45.000,0.00,0.09,-272.73,-272.78,0,509,-944,13.9,6.5,-22.1,14.1,6.6,-21.9,5.73,1.99,-17.5,20.8
2015-11-08 00:13:00,0.0,1.94001,0.00037,402.179,0.028,0.1361,0.0016,140.000,45.000,31344.14125,1.94260,402.837,29.063,45.071,45.000,0.00,0.09,-272.74,-272.79,0,508,-944,13.9,6.6,-22.1,14.1,6.6,-21.8,5.73,1.99,-17.5,20.8
2015-11-08 00:14:00,0.0,1.94045,0.00037,402.219,0.024,0.1359,0.0020,140.000,45.000,31342.17240,1.94305,402.877,29.063,45.071,45.000,0.00,0.09,-272.73,-272.79,1,508,-944,13.9,6.6,-22.0,14.1,6.7,-21.7,5.73,2.11,-17.5,20.8
2015-11-08 00:15:00,0.0,1.93923,0.00046,402.252,0.030,0.1371,0.0013,139.999,45.000,31342.75554,1.94187,402.918,29.063,45.071,45.000,0.00,0.09,-272.73,-272.78,1,508,-944,13.9,6.6,-22.0,14.1,6.7,-21.7,5.73,2.17,-17.5,20.8
2015-11-08 00:16:00,0.0,1.93948,0.00048,402.240,0.027,0.1372,0.0015,139.998,45.000,31342.95631,1.94209,402.906,29.066,45.071,45.000,0.00,0.09,-272.73,-272.79,0,508,-944,13.9,6.7,-21.9,14.1,6.7,-21.6,5.73,2.09,-17.5,20.8
2015-11-08 00:17:00,0.0,1.94028,0.00069,402.236,0.037,0.1370,0.0015,139.997,45.000,31342.84370,1.94284,402.899,29.078,45.071,45.000,0.00,0.09,-272.73,-272.79,1,508,-944,13.9,6.6,-21.9,14.1,6.7,-21.6,5.73,1.98,-17.5,20.7
2015-11-08 00:18:00,0.0,1.94013,0.00064,402.258,0.042,0.1363,0.0017,139.996,45.000,31341.79851,1.94282,402.920,29.092,45.071,45.000,0.00,0.09,-272.73,-272.79,1,508,-944,13.9,6.6,-22.0,14.2,6.7,-21.7,5.73,2.00,-17.5,20.8
2015-11-08 00:19:00,0.0,1.93950,0.00056,402.220,0.034,0.1386,0.0020,139.998,45.000,31345.33388,1.94215,402.892,29.090,45.071,45.000,0.00,0.09,-272.74,-272.79,1,509,-944,14.0,6.7,-21.9,14.2,6.7,-21.6,5.73,2.12,-17.5,20.8
2015-11-08 00:20:00,0.0,1.93941,0.00042,402.226,0.032,0.1384,0.0017,140.000,45.000,31345.79743,1.94204,402.897,29.085,45.071,45.000,0.00,0.09,-272.73,-272.79,0,509,-944,14.0,6.7,-21.8,14.2,6.7,-21.6,5.73,2.17,-17.5,20.8
2015-11-08 00:21:00,0.0,1.93991,0.00045,402.226,0.028,0.1371,0.0016,139.998,45.000,31346.60640,1.94252,402.891,29.064,45.071,45.000,0.00,0.09,-272.73,-272.78,1,508,-944,14.0,6.7,-21.9,14.2,6.7,-21.6,5.73,2.09,-17.5,20.8
2015-11-08 00:22:00,0.0,1.93971,0.00073,402.187,0.032,0.1382,0.0018,139.997,45.000,31345.56075,1.94238,402.858,29.065,45.071,45.000,0.00,0.09,-272.73,-272.79,1,509,-943,14.0,6.7,-21.9,14.2,6.7,-21.6,5.73,1.99,-17.5,20.8
2015-11-08 00:23:00,0.0,1.93991,0.00052,402.202,0.033,0.1398,0.0013,139.999,45.000,31345.19585,1.94255,402.878,29.063,45.072,45.000,0.00,0.09,-272.73,-272.79,1,509,-943,13.9,6.7,-21.8,14.2,6.8,-21.5,5.73,2.00,-17.5,20.8
2015-11-08 00:24:00,0.0,1.94029,0.00071,402.207,0.033,0.1377,0.0017,140.001,45.000,31345.35625,1.94297,402.876,29.058,45.072,45.000,0.00,0.09,-272.73,-272.78,0,509,-944,13.9,6.7,-21.9,14.2,6.8,-21.6,5.73,2.10,-17.5,20.8
2015-11-08 00:25:00,0.0,1.93981,0.00080,402.189,0.044,0.1383,0.0017,140.000,45.000,31345.77517,1.94243,402.860,29.034,45.072,45.000,0.00,0.09,-272.73,-272.78,1,508,-943,13.9,6.7,-21.9,14.2,6.7,-21.6,5.73,2.17,-17.5,20.8
2015-11-08 00:26:00,0.0,1.94007,0.00067,402.185,0.032,0.1377,0.0021,139.999,45.000,31344.67315,1.94269,402.853,29.042,45.072,45.001,0.00,0.09,-272.73,-272.78,1,508,-943,13.9,6.7,-21.9,14.2,6.7,-21.6,5.73,2.09,-17.5,20.8
2015-11-08 00:27:00,0.0,1.94043,0.00052,402.195,0.031,0.1374,0.0014,140.000,45.000,31345.04425,1.94307,402.861,29.021,45.072,45.000,0.00,0.09,-272.73,-272.78,1,508,-944,13.9,6.7,-21.9,14.2,6.7,-21.6,5.73,1.99,-17.5,20.8
2015-11-08 00:28:00,0.0,1.94019,0.00045,402.157,0.031,0.1380,0.0019,139.999,45.000,31344.74452,1.94284,402.828,29.022,45.072,45.001,0.00,0.09,-272.72,-272.78,0,508,-943,13.9,6.7,-21.9,14.2,6.7,-21.6,5.73,1.99,-17.5,20.8
2015-11-08 00:29:00,0.0,1.94032,0.00037,402.147,0.035,0.1388,0.0017,140.000,45.000,31346.89243,1.94297,402.821,29.016,45.072,45.000,0.00,0.09,-272.74,-272.79,1,508,-944,13.9,6.7,-21.8,14.2,6.7,-21.6,5.73,2.11,-17.5,20.8
2015-11-08 00:30:00,0.0,1.94095,0.00050,402.137,0.029,0.1390,0.0022,139.998,45.000,31343.42782,1.94360,402.810,29.038,45.072,45.000,0.00,0.09,-272.73,-272.79,1,508,-944,14.0,6.7,-21.8,14.2,6.7,-21.6,5.73,2.17,-17.5,20.8
2015-11-08 00:31:00,0.0,1.94073,0.00041,402.124,0.029,0.1388,0.0018,139.999,45.000,31345.39249,1.94341,402.797,29.058,45.071,45.000,0.00,0.09,-272.73,-272.78,0,509,-943,14.0,6.7,-21.8,14.2,6.8,-21.5,5.73,2.09,-17.5,20.8
2015-11-08 00:32:00,0.0,1.94082,0.00042,402.122,0.032,0.1399,0.0015,139.999,45.000,31344.98303,1.94348,402.801,29.051,45.071,45.000,0.00,0.09,-272.73,-272.79,0,508,-943,14.0,6.8,-21.7,14.2,6.8,-21.5,5.73,2.00,-17.5,20.8
2015-11-08 00:33:00,0.0,1.94144,0.00056,402.163,0.034,0.1373,0.0020,139.999,45.000,31345.68146,1.94406,402.826,29.049,45.071,45.000,0.00,0.09,-272.74,-272.79,1,508,-943,14.0,6.7,-21.8,14.2,6.8,-21.5,5.73,1.99,-17.5,20.8
2015-11-08 00:34:00,0.0,1.94070,0.00078,402.157,0.032,0.1369,0.0021,139.997,45.000,31345.55666,1.94339,402.823,29.054,45.071,45.000,0.00,0.09,-272.73,-272.79,1,509,-943,14.0,6.6,-21.9,14.2,6.7,-21.6,5.73,2.09,-17.5,20.8
2015-11-08 00:35:00,0.0,1.94015,0.00056,402.141,0.030,0.1382,0.0016,139.999,45.000,31348.07368,1.94272,402.812,29.060,45.071,45.000,0.00,0.09,-272.73,-272.78,1,509,-943,14.0,6.7,-21.8,14.2,6.8,-21.5,5.73,2.16,-17.5,20.8
2015-11-08 00:36:00,0.0,1.94020,0.00087,402.149,0.029,0.1380,0.0012,140.000,45.000,31348.08542,1.94288,402.817,29.060,45.071,45.000,0.00,0.09,-272.74,-272.79,0,508,-943,14.0,6.6,-21.9,14.2,6.7,-21.6,5.73,2.11,-17.5,20.8
2015-11-08 00:37:00,0.0,1.94064,0.00110,402.155,0.047,0.1384,0.0016,139.999,45.000,31347.09344,1.94327,402.825,29.046,45.071,45.000,0.00,0.09,-272.73,-272.79,1,508,-944,14.0,6.7,-21.8,14.2,6.7,-21.6,5.73,1.99,-17.5,20.8
2015-11-08 00:38:00,0.0,1.94106,0.00109,402.133,0.039,0.1393,0.0021,140.001,45.000,31346.76299,1.94366,402.809,29.050,45.071,45.000,0.00,0.09,-272.72,-272.78,1,509,-943,14.0,6.7,-21.8,14.2,6.8,-21.5,5.73,1.99,-17.4,20.8
2015-11-08 00:39:00,0.0,1.94051,0.00096,402.125,0.036,0.1387,0.0016,139.999,45.000,31345.52657,1.94315,402.799,29.044,45.071,45.000,0.00,0.09,-272.73,-272.79,0,509,-943,14.0,6.7,-21.8,14.2,6.8,-21.5,5.73,2.11,-17.5,20.8
2015-11-08 00:40:00,0.0,1.94092,0.00067,402.102,0.033,0.1371,0.0017,140.000,45.000,31344.88598,1.94360,402.766,29.051,45.071,45.000,0.00,0.09,-272.73,-272.79,0,508,-944,13.9,6.7,-21.9,14.2,6.8,-21.6,5.73,2.17,-17.5,20.8
2015-11-08 00:41:00,0.0,1.94067,0.00105,402.104,0.044,0.1376,0.0019,139.998,45.000,31343.17614,1.94335,402.773,29.038,45.071,45.000,0.00,0.09,-272.72,-272.78,1,509,-943,14.0,6.7,-21.9,14.2,6.7,-21.6,5.73,2.08,-17.5,20.8
2015-11-08 00:42:00,0.0,1.93996,0.00033,402.036,0.035,0.1398,0.0013,140.000,45.000,31345.22352,1.94264,402.714,29.034,45.071,45.000,0.00,0.09,-272.73,-272.79,1,509,-943,14.0,6.7,-21.7,14.2,6.8,-21.5,5.73,1.97,-17.5,20.8
2015-11-08 00:43:00,0.0,1.94053,0.00050,402.045,0.028,0.1384,0.0016,140.000,45.000,31346.44604,1.94316,402.715,29.014,45.071,45.000,0.00,0.09,-272.73,-272.79,0,508,-943,13.9,6.7,-21.8,14.2,6.8,-21.4,5.73,2.02,-17.5,20.8
2015-11-08 00:44:00,0.0,1.94132,0.00049,402.085,0.032,0.1379,0.0021,139.999,45.000,31347.48209,1.94394,402.752,29.000,45.071,45.000,0.00,0.09,-272.73,-272.78,0,508,-943,14.0,6.7,-21.8,14.2,6.8,-21.5,5.73,2.14,-17.5,20.8
2015-11-08 00:45:00,0.0,1.94057,0.00051,402.121,0.034,0.1379,0.0018,139.999,45.000,31346.10645,1.94322,402.789,29.003,45.071,45.000,0.00,0.09,-272.73,-272.78,1,509,-943,14.0,6.7,-21.8,14.2,6.8,-21.5,5.73,2.16,-17.4,20.8
2015-11-08 00:46:00,0.0,1.94233,0.00107,402.127,0.031,0.1382,0.0021,139.999,45.000,31346.73383,1.94502,402.799,29.006,45.071,45.000,0.00,0.09,-272.74,-272.79,1,509,-943,14.0,6.7,-21.8,14.2,6.8,-21.5,5.73,2.05,-17.5,20.8
2015-11-08 00:47:00,0.0,1.94045,0.00064,402.080,0.034,0.1369,0.0021,140.001,45.000,31347.39013,1.94308,402.743,29.015,45.071,45.000,0.00,0.09,-272.73,-272.78,-0,508,-943,14.0,6.6,-21.9,14.2,6.7,-21.6,5.73,1.97,-17.5,20.8
2015-11-08 00:48:00,0.0,1.94029,0.00113,402.036,0.030,0.1391,0.0021,139.999,45.000,31348.17041,1.94287,402.710,29.030,45.071,45.000,0.00,0.09,-272.73,-272.78,1,508,-943,14.0,6.7,-21.8,14.2,6.8,-21.5,5.73,2.03,-17.5,20.8
2015-11-08 00:49:00,0.0,1.94088,0.00061,402.039,0.039,0.1390,0.0017,140.001,45.000,31347.92199,1.94358,402.713,29.060,45.071,45.000,0.00,0.09,-272.73,-272.78,1,509,-943,14.0,6.7,-21.8,14.2,6.8,-21.5,5.73,2.15,-17.5,20.9
2015-11-08 00:50:00,0.0,1.94075,0.00065,402.027,0.034,0.1390,0.0017,140.001,45.000,31346.59575,1.94344,402.703,29.063,45.071,45.000,0.00,0.09,-272.74,-272.78,0,509,-943,14.0,6.7,-21.8,14.2,6.8,-21.5,5.73,2.15,-17.5,20.8
2015-11-08 00:51:00,0.0,1.94048,0.00038,402.030,0.038,0.1404,0.0017,139.999,45.000,31346.42895,1.94315,402.709,29.061,45.071,44.999,0.00,0.09,-272.74,-272.78,-0,508,-943,14.0,6.8,-21.7,14.2,6.8,-21.4,5.73,2.04,-17.5,20.8
2015-11-08 00:52:00,0.0,1.94045,0.00051,402.056,0.031,0.1398,0.0020,140.001,45.000,31348.21191,1.94314,402.733,29.063,45.071,44.999,0.00,0.09,-272.73,-272.79,1,508,-943,14.0,6.8,-21.7,14.2,6.8,-21.4,5.73,1.97,-17.4,20.8
2015-11-08 00:53:00,0.0,1.94133,0.00080,402.088,0.026,0.1408,0.0020,140.000,45.000,31347.01758,1.94397,402.772,29.063,45.071,45.000,0.00,0.09,-272.73,-272.79,1,509,-943,14.0,6.8,-21.7,14.2,6.9,-21.4,5.73,2.05,-17.5,20.8
2015-11-08 00:54:00,0.0,1.94118,0.00079,402.086,0.036,0.1402,0.0018,140.001,45.000,31345.35873,1.94393,402.766,29.054,45.071,45.000,0.00,0.09,-272.73,-272.79,0,508,-943,13.9,6.8,-21.7,14.2,6.8,-21.4,5.73,2.16,-17.4,20.8
2015-11-08 00:55:00,0.0,1.94055,0.00062,402.125,0.039,0.1408,0.0016,139.999,45.000,31343.55456,1.94321,402.807,29.019,45.071,45.000,0.00,0.09,-272.73,-272.79,0,508,-943,13.9,6.8,-21.7,14.2,6.9,-21.3,5.73,2.14,-17.5,20.8
2015-11-08 00:56:00,0.0,1.94092,0.00055,402.090,0.040,0.1402,0.0017,140.000,45.000,31343.98474,1.94364,402.770,29.022,45.071,45.000,0.00,0.09,-272.73,-272.79,1,508,-943,14.0,6.8,-21.7,14.2,6.9,-21.3,5.73,2.01,-17.5,20.8
2015-11-08 00:57:00,0.0,1.94073,0.00053,402.133,0.036,0.1401,0.0016,140.000,45.000,31344.46319,1.94337,402.812,29.010,45.071,45.000,0.00,0.09,-272.73,-272.79,1,508,-943,13.9,6.8,-21.7,14.2,6.9,-21.4,5.73,1.97,-17.4,20.8
2015-11-08 00:58:00,0.0,1.94171,0.00042,402.150,0.029,0.1390,0.0020,139.998,45.000,31345.17616,1.94437,402.824,29.011,45.071,45.000,0.00,0.09,-272.73,-272.78,-0,508,-943,13.9,6.8,-21.7,14.2,6.9,-21.4,5.73,2.08,-17.5,20.8
2015-11-08 00:59:00,0.0,1.94108,0.00049,402.073,0.032,0.1400,0.0017,140.000,45.000,31346.66215,1.94378,402.752,29.052,45.071,45.000,0.00,0.09,-272.73,-272.79,0,508,-943,14.0,6.8,-21.7,14.2,6.8,-21.4,5.73,2.17,-17.5,20.8
2015-11-08 01:00:00,0.0,1.94177,0.00065,402.089,0.032,0.1408,0.0018,139.999,45.000,31345.77172,1.94446,402.771,29.042,45.071,45.000,0.00,0.09,-272.74,-272.79,1,508,-943,14.0,6.8,-21.6,14.2,6.9,-21.4,5.73,2.12,-17.5,20.8
2015-11-08 01:01:00,0.0,1.94148,0.00070,402.081,0.031,0.1409,0.0016,139.999,45.000,31345.68236,1.94413,402.763,29.026,45.071,45.000,0.00,0.09,-272.73,-272.78,1,509,-943,14.0,6.8,-21.6,14.2,6.9,-21.4,5.73,2.00,-17.4,20.9
2015-11-08 01:02:00,0.0,1.94154,0.00064,402.092,0.036,0.1404,0.0023,140.000,45.000,31345.33234,1.94425,402.773,29.042,45.071,45.000,0.00,0.09,-272.73,-272.78,-0,509,-943,14.0,6.8,-21.6,14.2,6.9,-21.3,5.73,1.98,-17.5,20.9
2015-11-08 01:03:00,0.0,1.94090,0.00063,402.088,0.039,0.1418,0.0016,139.996,45.000,31346.21650,1.94362,402.777,29.053,45.071,45.000,0.00,0.09,-272.73,-272.78,0,508,-943,14.0,6.8,-21.6,14.2,6.9,-21.3,5.73,2.08,-17.4,20.9
2015-11-08 01:04:00,0.0,1.94125,0.00061,402.086,0.041,0.1411,0.0021,140.000,45.000,31344.67271,1.94401,402.770,29.061,45.071,45.000,0.00,0.09,-272.74,-272.79,1,508,-943,14.0,6.8,-21.6,14.2,6.9,-21.3,5.73,2.17,-17.5,20.8
2015-11-08 01:05:00,0.0,1.94162,0.00086,402.119,0.039,0.1398,0.0015,140.000,45.000,31343.09888,1.94422,402.797,29.056,45.071,45.000,0.00,0.09,-272.74,-272.78,1,509,-943,14.0,6.8,-21.7,14.2,6.9,-21.4,5.73,2.11,-17.5,20.8
2015-11-08 01:06:00,0.0,1.94186,0.00045,402.129,0.038,0.1394,0.0015,139.999,45.000,31343.92816,1.94454,402.805,29.052,45.071,45.000,0.00,0.09,-272.73,-272.79,0,509,-943,14.0,6.7,-21.8,14.2,6.8,-21.5,5.73,2.01,-17.5,20.8
2015-11-08 01:07:00,0.0,1.94201,0.00036,402.139,0.029,0.1393,0.0014,139.999,45.000,31341.91841,1.94469,402.816,29.038,45.071,45.000,0.00,0.09,-272.73,-272.79,0,508,-943,14.0,6.7,-21.8,14.2,6.8,-21.5,5.73,1.98,-17.5,20.8
2015-11-08 01:08:00,0.0,1.94220,0.00053,402.124,0.031,0.1412,0.0018,140.000,45.000,31340.30415,1.94486,402.807,29.031,45.071,45.000,0.00,0.09,-272.72,-272.79,1,509,-943,13.9,6.8,-21.7,14.2,6.9,-21.4,5.73,2.08,-17.5,20.8
2015-11-08 01:09:00,0.0,1.94221,0.00041,402.106,0.022,0.1419,0.0024,140.000,45.000,31338.85560,1.94496,402.794,29.015,45.071,45.000,0.00,0.09,-272.73,-272.79,0,509,-943,13.9,6.8,-21.6,14.2,6.9,-21.3,5.73,2.16,-17.5,20.8
2015-11-08 01:10:00,0.0,1.94264,0.00060,402.141,0.036,0.1405,0.0014,139.999,45.000,31339.86677,1.94535,402.823,29.023,45.071,45.000,0.00,0.09,-272.73,-272.79,0,509,-943,14.0,6.8,-21.7,14.2,6.9,-21.4,5.73,2.12,-17.4,20.8
2015-11-08 01:11:00,0.0,1.94279,0.00039,402.161,0.039,0.1405,0.0016,139.999,45.000,31339.21450,1.94548,402.842,29.044,45.071,45.000,0.00,0.09,-272.73,-272.79,1,508,-943,14.0,6.8,-21.7,14.2,6.9,-21.4,5.73,2.02,-17.5,20.8
2015-11-08 01:12:00,0.0,1.94166,0.00058,402.174,0.031,0.1400,0.0018,139.999,45.000,31340.05377,1.94434,402.853,29.017,45.071,45.000,0.00,0.09,-272.72,-272.79,1,509,-943,14.0,6.7,-21.7,14.2,6.8,-21.4,5.73,1.97,-17.4,20.8
2015-11-08 01:13:00,0.0,1.94269,0.00068,402.163,0.030,0.1404,0.0014,139.997,45.000,31338.94710,1.94540,402.845,29.005,45.072,45.000,0.00,0.09,-272.73,-272.79,1,509,-943,14.0,6.8,-21.7,14.2,6.8,-21.4,5.73,2.07,-17.5,20.8
2015-11-08 01:14:00,0.0,1.94207,0.00051,402.130,0.033,0.1389,0.0018,139.999,45.000,31340.04072,1.94474,402.804,29.040,45.072,45.000,0.00,0.09,-272.73,-272.79,0,509,-943,14.0,6.7,-21.8,14.2,6.8,-21.5,5.73,2.16,-17.4,20.8
2015-11-08 01:15:00,0.0,1.94193,0.00040,402.114,0.025,0.1401,0.0018,140.000,45.000,31342.59663,1.94463,402.794,29.063,45.071,45.000,0.00,0.09,-272.73,-272.78,1,508,-943,14.0,6.7,-21.7,14.2,6.8,-21.4,5.73,2.13,-17.4,20.8
2015-11-08 01:16:00,0.0,1.94157,0.00032,402.114,0.028,0.1406,0.0014,139.999,45.000,31341.18417,1.94424,402.796,29.064,45.071,45.000,0.00,0.09,-272.73,-272.79,1,509,-943,14.0,6.8,-21.7,14.2,6.8,-21.4,5.73,2.02,-17.4,20.8
2015-11-08 01:17:00,0.0,1.94146,0.00035,402.141,0.027,0.1405,0.0020,139.999,45.000,31339.35440,1.94414,402.822,29.088,45.071,45.000,0.00,0.09,-272.73,-272.79,0,509,-943,14.0,6.8,-21.7,14.2,6.9,-21.4,5.73,1.98,-17.5,20.8
2015-11-08 01:18:00,0.0,1.94149,0.00048,402.117,0.034,0.1398,0.0023,139.997,45.000,31339.89383,1.94421,402.795,29.125,45.071,45.000,0.00,0.09,-272.73,-272.78,0,509,-943,14.0,6.8,-21.7,14.2,6.8,-21.4,5.73,2.05,-17.5,20.8
2015-11-08 01:19:00,0.0,1.94194,0.00039,402.141,0.036,0.1396,0.0014,140.000,45.000,31339.09013,1.94455,402.818,29.123,45.071,44.999,0.00,0.09,-272.72,-272.78,1,508,-943,14.0,6.7,-21.7,14.2,6.8,-21.4,5.73,2.15,-17.5,20.8
2015-11-08 01:20:00,0.0,1.94161,0.00059,402.110,0.037,0.1387,0.0013,139.999,45.000,31338.40351,1.94432,402.784,29.124,45.071,45.000,0.00,0.09,-272.74,-272.79,1,509,-943,14.0,6.7,-21.8,14.2,6.8,-21.5,5.73,2.14,-17.4,20.8
2015-11-08 01:21:00,0.0,1.94134,0.00050,402.100,0.023,0.1387,0.0018,139.999,45.000,31341.94791,1.94397,402.772,29.119,45.071,45.000,0.00,0.09,-272.73,-272.78,0,509,-943,14.0,6.7,-21.9,14.2,6.8,-21.5,5.73,2.04,-17.4,20.8
2015-11-08 01:22:00,0.0,1.94155,0.00044,402.078,0.045,0.1371,0.0026,140.001,45.000,31341.24285,1.94419,402.745,29.079,45.071,45.000,0.00,0.09,-272.73,-272.78,-0,508,-943,14.0,6.6,-21.9,14.2,6.7,-21.6,5.73,1.97,-17.4,20.8
2015-11-08 01:23:00,0.0,1.94117,0.00033,402.077,0.035,0.1375,0.0020,139.999,45.000,31343.02916,1.94381,402.741,29.064,45.071,45.000,0.00,0.09,-272.73,-272.79,1,508,-943,14.0,6.6,-21.9,14.2,6.7,-21.6,5.73,2.04,-17.4,20.8
2015-11-08 01:24:00,0.0,1.94151,0.00049,402.116,0.031,0.1363,0.0019,140.001,45.000,31342.49023,1.94411,402.777,29.066,45.071,45.000,0.00,0.09,-272.73,-272.79,1,509,-943,14.0,6.6,-21.9,14.2,6.7,-21.6,5.73,2.15,-17.4,20.8
2015-11-08 01:25:00,0.0,1.94182,0.00044,402.114,0.028,0.1371,0.0018,139.999,45.000,31343.33721,1.94445,402.778,29.073,45.071,45.000,0.00,0.09,-272.73,-272.79,0,509,-943,14.0,6.6,-21.9,14.2,6.7,-21.6,5.73,2.15,-17.4,20.9
2015-11-08 01:26:00,0.0,1.94148,0.00035,402.084,0.037,0.1382,0.0015,140.000,45.000,31344.39308,1.94413,402.755,29.069,45.072,45.000,0.00,0.09,-272.73,-272.79,-0,509,-943,14.0,6.7,-21.8,14.2,6.7,-21.6,5.73,2.05,-17.4,20.9
2015-11-08 01:27:00,0.0,1.94115,0.00034,402.041,0.023,0.1380,0.0014,140.001,45.000,31345.08673,1.94381,402.710,29.074,45.072,45.001,0.00,0.09,-272.74,-272.79,1,509,-943,14.0,6.7,-21.9,14.2,6.7,-21.6,5.73,1.98,-17.4,20.9
2015-11-08 01:28:00,0.0,1.94167,0.00041,402.058,0.051,0.1388,0.0018,140.000,45.000,31341.05549,1.94432,402.731,29.072,45.072,45.000,0.00,0.09,-272.73,-272.79,1,509,-943,14.0,6.7,-21.9,14.2,6.7,-21.6,5.73,2.01,-17.4,20.8
2015-11-08 01:29:00,0.0,1.94190,0.00028,402.050,0.036,0.1385,0.0025,139.998,45.000,31341.34008,1.94453,402.721,29.086,45.071,45.000,0.00,0.09,-272.73,-272.78,0,509,-943,14.0,6.7,-21.8,14.2,6.8,-21.5,5.73,2.12,-17.4,20.8
2015-11-08 01:30:00,0.0,1.94187,0.00041,402.022,0.024,0.1395,0.0015,140.000,45.000,31341.33503,1.94454,402.699,29.064,45.071,45.000,0.00,0.09,-272.74,-272.79,-0,509,-943,14.0,6.7,-21.7,14.2,6.8,-21.5,5.73,2.16,-17.4,20.8
2015-11-08 01:31:00,0.0,1.94170,0.00045,402.002,0.031,0.1381,0.0018,140.001,45.000,31341.02039,1.94436,402.672,29.063,45.071,45.000,0.00,0.09,-272.73,-272.78,0,508,-943,14.0,6.7,-21.8,14.2,6.8,-21.5,5.73,2.09,-17.4,20.8
2015-11-08 01:32:00,0.0,1.94183,0.00047,401.988,0.031,0.1392,0.0019,139.995,45.000,31343.09269,1.94448,402.662,29.059,45.071,45.000,0.00,0.09,-272.73,-272.77,1,509,-943,14.0,6.7,-21.8,14.2,6.8,-21.5,5.73,1.99,-17.4,20.8
2015-11-08 01:33:00,0.0,1.94148,0.00030,401.940,0.037,0.1403,0.0012,140.001,45.000,31345.83232,1.94419,402.621,29.045,45.071,45.000,0.00,0.09,-272.73,-272.79,0,509,-943,14.0,6.7,-21.8,14.2,6.8,-21.5,5.73,1.99,-17.4,20.9
2015-11-08 01:34:00,0.0,1.94171,0.00039,401.983,0.033,0.1400,0.0022,140.001,45.000,31343.21682,1.94440,402.661,29.028,45.071,45.000,0.00,0.09,-272.73,-272.79,-0,508,-943,14.0,6.7,-21.8,14.2,6.8,-21.5,5.73,2.08,-17.4,20.8
2015-11-08 01:35:00,0.0,1.94125,0.00042,401.935,0.033,0.1392,0.0016,139.996,45.000,31341.37675,1.94393,402.610,29.004,45.071,45.000,0.00,0.09,-272.73,-272.78,0,508,-943,14.0,6.7,-21.8,14.2,6.8,-21.5,5.73,2.15,-17.4,20.8
2015-11-08 01:36:00,0.0,1.94110,0.00036,401.954,0.027,0.1394,0.0019,139.999,45.000,31342.51960,1.94375,402.630,29.004,45.071,45.000,0.00,0.09,-272.73,-272.79,1,509,-943,14.0,6.7,-21.7,14.2,6.8,-21.5,5.73,2.12,-17.4,20.8
2015-11-08 01:37:00,0.0,1.94118,0.00036,401.942,0.033,0.1393,0.0017,140.001,45.000,31341.40151,1.94389,402.617,28.997,45.071,45.000,0.00,0.09,-272.74,-272.79,0,509,-943,14.0,6.7,-21.8,14.2,6.8,-21.5,5.73,2.02,-17.4,20.9
2015-11-08 01:38:00,0.0,1.94102,0.00023,401.960,0.034,0.1404,0.0019,139.998,45.000,31340.77202,1.94371,402.640,28.981,45.071,45.000,0.00,0.09,-272.73,-272.78,-0,509,-943,14.0,6.7,-21.7,14.2,6.8,-21.4,5.73,1.97,-17.4,20.8
2015-11-08 01:39:00,0.0,1.94126,0.00037,401.968,0.028,0.1400,0.0014,140.002,45.000,31342.97516,1.94394,402.646,28.973,45.071,45.000,0.00,0.09,-272.73,-272.78,0,508,-943,14.1,6.7,-21.7,14.2,6.8,-21.4,5.73,2.04,-17.4,20.8
2015-11-08 01:40:00,0.0,1.94146,0.00043,401.955,0.027,0.1398,0.0013,140.001,45.000,31344.40111,1.94412,402.632,28.985,45.071,45.000,0.00,0.09,-272.74,-272.79,1,509,-943,14.1,6.7,-21.7,14.2,6.8,-21.5,5.73,2.13,-17.4,20.8
2015-11-08 01:41:00,0.0,1.94108,0.00034,401.939,0.035,0.1400,0.0019,139.996,45.000,31340.10704,1.94377,402.617,28.999,45.071,45.000,0.00,0.09,-272.74,-272.79,0,509,-943,14.1,6.7,-21.7,14.2,6.8,-21.4,5.73,2.14,-17.4,20.9
2015-11-08 01:42:00,0.0,1.94079,0.00029,401.953,0.033,0.1382,0.0016,139.998,45.000,31341.30776,1.94344,402.623,28.999,45.071,45.000,0.00,0.09,-272.73,-272.79,-1,509,-942,14.1,6.7,-21.8,14.2,6.8,-21.5,5.73,2.06,-17.4,20.9
2015-11-08 01:43:00,0.0,1.94104,0.00043,401.945,0.041,0.1383,0.0018,139.997,45.000,31343.65381,1.94367,402.616,29.000,45.071,45.000,0.00,0.09,-272.73,-272.79,0,509,-943,14.1,6.6,-21.8,14.2,6.7,-21.6,5.73,1.98,-17.5,20.9
2015-11-08 01:44:00,0.0,1.94121,0.00049,401.954,0.029,0.1401,0.0018,140.001,45.000,31342.71055,1.94390,402.632,29.001,45.071,45.000,0.00,0.09,-272.73,-272.79,1,509,-943,14.0,6.7,-21.7,14.2,6.8,-21.5,5.73,2.00,-17.5,20.8
2015-11-08 01:45:00,0.0,1.94081,0.00029,401.945,0.031,0.1398,0.0016,139.999,45.000,31342.83560,1.94348,402.622,29.007,45.071,45.000,0.00,0.09,-272.73,-272.78,0,509,-942,14.0,6.7,-21.8,14.2,6.8,-21.5,5.73,2.10,-17.4,20.8